Location: Musselshell
(46.5176°N, 108.0911°W)
Time: 14:15:40
(UTC+00:00)

AO-91 - Pass Details

Date: 29 June 2022
Orbit: 450 x 798 km, 97.7° (Epoch: 07 August)

Event Time Altitude Azimuth Distance (km) Brightness Sun altitude
Rises 06:43:17 0° 4° (N) 2,573 ? -19.9°
Reaches altitude 10° 06:45:33 10° 353° (N) 1,650 ? -19.9°
Maximum altitude 06:48:38 30° 291° (WNW) 853 ? -20.0°
Enters shadow 06:49:44 24° 256° (WSW) 978 ? -20.0°
